FW1123 Weather Reports


Display with metric or nautical units.
time (UTC)temp
F
wind
direction
speed
MPH
gust
MPH
rain 1hr
in
rain 24hr
in
rain mn
in
humidity
%
barometer
mb
20171217135955 41 5 2.0 3.0 0.00 0.00 0.00 63 1025.7
20171217135913 41 5 2.0 3.0 0.00 0.00 0.00 63 1025.7
20171217134859 40 5 2.0 3.0 0.00 0.00 0.00 64 1025.8
20171217134454 40 5 0.0 3.0 0.00 0.00 0.00 64 1025.8
20171217134412 40 5 0.0 3.0 0.00 0.00 0.00 64 1025.8
20171217133910 39 5 1.0 3.0 0.00 0.00 0.00 65 1026.0
20171217132824 39 5 2.0 4.0 0.00 0.00 0.00 63 1025.8
20171217132317 39 5 3.0 4.0 0.00 0.00 0.00 62 1025.8
20171217131830 40 282 2.0 4.0 0.00 0.00 0.00 62 1025.9
20171217131330 40 281 2.0 4.0 0.00 0.00 0.00 61 1025.8
20171217130830 40 273 3.0 3.0 0.00 0.00 0.00 62 1025.8
20171217130405 40 257 1.0 2.0 0.00 0.00 0.00 63 1025.8
20171217125344 41 257 0.0 2.0 0.00 0.00 0.00 64 1025.7
20171217124846 41 257 1.0 2.0 0.00 0.00 0.00 63 1025.6
20171217124444 41 257 1.0 2.0 0.00 0.00 0.00 63 1025.4
20171217123905 41 257 1.0 2.0 0.00 0.00 0.00 62 1025.3
20171217123347 41 257 1.0 2.0 0.00 0.00 0.00 60 1025.3
20171217122824 41 257 1.0 2.0 0.00 0.00 0.00 61 1025.1
20171217122416 41 257 1.0 2.0 0.00 0.00 0.00 62 1025.0
20171217121853 40 257 1.0 2.0 0.00 0.00 0.00 60 1024.9
20171217121455 41 257 1.0 2.0 0.00 0.00 0.00 59 1025.0
20171217121413 41 257 1.0 2.0 0.00 0.00 0.00 59 1025.0
20171217120906 41 257 0.0 2.0 0.00 0.00 0.00 59 1024.8
20171217120356 41 257 1.0 4.0 0.00 0.00 0.00 58 1024.9
20171217115853 41 257 1.0 4.0 0.00 0.00 0.00 57 1024.9
20171217115351 42 261 1.0 4.0 0.00 0.00 0.00 58 1024.8
20171217114417 42 38 1.0 4.0 0.00 0.00 0.00 56 1024.7
20171217113408 42 33 1.0 4.0 0.00 0.00 0.00 56 1024.6
20171217112856 42 35 3.0 5.0 0.00 0.00 0.00 57 1024.4
20171217111415 41 36 3.0 4.0 0.00 0.00 0.00 59 1024.7
20171217110830 40 43 2.0 5.0 0.00 0.00 0.00 60 1024.7
20171217110431 40 40 3.0 5.0 0.00 0.00 0.00 61 1024.7
20171217105844 39 55 4.0 5.0 0.00 0.00 0.00 59 1024.8
20171217105321 40 60 4.0 5.0 0.00 0.00 0.00 59 1024.9
20171217104917 40 74 3.0 4.0 0.00 0.00 0.00 58 1024.9
20171217104401 41 130 2.0 3.0 0.00 0.00 0.00 58 1024.9
20171217103831 41 137 1.0 2.0 0.00 0.00 0.00 57 1025.0
20171217102903 41 137 1.0 3.0 0.00 0.00 0.00 57 1025.2
20171217101856 43 70 1.0 2.0 0.00 0.00 0.00 54 1025.3
20171217101404 43 70 1.0 2.0 0.00 0.00 0.00 53 1025.2
20171217100904 43 70 1.0 2.0 0.00 0.00 0.00 53 1025.2
20171217094844 45 70 1.0 1.0 0.00 0.00 0.00 50 1025.0
20171217094353 45 70 0.0 2.0 0.00 0.00 0.00 50 1025.0
20171217093842 46 70 1.0 2.0 0.00 0.00 0.00 48 1025.1
20171217093410 46 70 1.0 3.0 0.00 0.00 0.00 48 1025.1
20171217092853 47 70 2.0 4.0 0.00 0.00 0.00 47 1025.2
20171217092336 47 70 2.0 4.0 0.00 0.00 0.00 47 1025.1
20171217091822 47 70 2.0 4.0 0.00 0.00 0.00 47 1025.4
20171217091357 47 70 3.0 4.0 0.00 0.00 0.00 47 1025.2
20171217090856 47 93 3.0 4.0 0.00 0.00 0.00 47 1025.3
20171217090336 47 96 2.0 4.0 0.00 0.00 0.00 46 1025.4
20171217085838 48 96 2.0 4.0 0.00 0.00 0.00 45 1025.4
20171217085320 48 96 3.0 4.0 0.00 0.00 0.00 46 1025.4
20171217084825 47 96 2.0 4.0 0.00 0.00 0.00 45 1025.4
20171217084325 48 98 3.0 4.0 0.00 0.00 0.00 45 1025.3
20171217083834 48 100 2.0 3.0 0.00 0.00 0.00 45 1025.3
20171217083319 48 100 2.0 3.0 0.00 0.00 0.00 45 1025.2
20171217082842 48 100 1.0 4.0 0.00 0.00 0.00 45 1025.3
20171217082347 48 100 2.0 4.0 0.00 0.00 0.00 45 1025.3
20171217081833 47 99 2.0 4.0 0.00 0.00 0.00 45 1025.3
20171217081338 47 99 2.0 4.0 0.00 0.00 0.00 45 1025.2
20171217080840 47 99 3.0 6.0 0.00 0.00 0.00 45 1025.2
20171217080340 47 115 2.0 6.0 0.00 0.00 0.00 46 1025.3
20171217075823 47 98 2.0 4.0 0.00 0.00 0.00 46 1025.2
20171217075350 47 88 3.0 4.0 0.00 0.00 0.00 47 1025.1
20171217074816 46 88 3.0 4.0 0.00 0.00 0.00 47 1025.1
20171217074342 46 88 3.0 4.0 0.00 0.00 0.00 48 1024.9
20171217073828 45 107 3.0 4.0 0.00 0.00 0.00 49 1025.0
20171217073315 45 111 3.0 4.0 0.00 0.00 0.00 49 1025.0
20171217072838 45 111 2.0 6.0 0.00 0.00 0.00 49 1025.0
20171217072322 45 111 3.0 6.0 0.00 0.00 0.00 49 1025.0
20171217071827 45 112 2.0 4.0 0.00 0.00 0.00 49 1025.0
20171217071329 45 112 3.0 4.0 0.00 0.00 0.00 49 1025.0
20171217070333 45 112 2.0 3.0 0.00 0.00 0.00 50 1024.9
20171217065844 45 112 2.0 4.0 0.00 0.00 0.00 51 1025.0
20171217065319 45 112 3.0 4.0 0.00 0.00 0.00 51 1024.9
20171217064907 45 112 2.0 4.0 0.00 0.00 0.00 51 1024.9
20171217064356 45 112 2.0 4.0 0.00 0.00 0.00 51 1024.9
20171217063828 45 112 3.0 4.0 0.00 0.00 0.00 50 1024.9
20171217063412 45 115 3.0 4.0 0.00 0.00 0.00 50 1024.9
20171217062415 45 121 3.0 3.0 0.00 0.00 0.00 50 1024.9
20171217061915 45 121 2.0 3.0 0.00 0.00 0.00 51 1024.9
20171217061355 45 121 2.0 4.0 0.00 0.00 0.00 52 1024.8
20171217060859 45 121 2.0 4.0 0.00 0.00 0.00 52 1024.8
20171217060341 45 121 2.0 3.0 0.00 0.00 0.00 52 1024.8
20171217055826 45 121 2.0 4.0 0.00 0.00 0.00 52 1024.8
20171217055326 45 121 3.0 5.0 0.00 0.00 0.00 52 1024.7
20171217054845 45 123 3.0 5.0 0.00 0.00 0.00 52 1024.7
20171217054359 45 130 3.0 5.0 0.00 0.00 0.00 51 1024.7
20171217053831 45 130 3.0 5.0 0.00 0.00 0.00 50 1024.6
20171217053322 45 130 3.0 4.0 0.00 0.00 0.00 50 1024.5
20171217052830 46 130 3.0 4.0 0.00 0.00 0.00 49 1024.3
20171217052336 46 103 3.0 4.0 0.00 0.00 0.00 50 1024.4
20171217051839 45 101 3.0 4.0 0.00 0.00 0.00 51 1024.3
20171217051436 44 101 2.0 4.0 0.00 0.00 0.00 52 1024.3
20171217050855 44 101 2.0 6.0 0.00 0.00 0.00 52 1024.3
20171217050404 44 101 3.0 6.0 0.00 0.00 0.00 52 1024.3
20171217045921 43 103 3.0 6.0 0.00 0.00 0.00 52 1024.3
20171217045347 43 102 2.0 3.0 0.00 0.00 0.00 51 1024.2
20171217044845 44 102 2.0 4.0 0.00 0.00 0.00 52 1024.1
20171217044358 44 102 2.0 7.0 0.00 0.00 0.00 51 1024.1
20171217043857 44 106 3.0 7.0 0.00 0.00 0.00 51 1024.0
20171217043406 44 112 5.0 7.0 0.00 0.00 0.00 53 1024.0
20171217042836 44 130 5.0 7.0 0.00 0.00 0.00 53 1024.0
20171217042319 43 114 4.0 7.0 0.00 0.00 0.00 53 1023.8
20171217041929 43 109 4.0 7.0 0.00 0.00 0.00 53 1023.7
20171217040924 43 93 4.0 6.0 0.00 0.00 0.00 51 1023.8
20171217040359 43 112 3.0 8.0 0.00 0.00 0.00 51 1023.7
20171217035939 43 115 4.0 8.0 0.00 0.00 0.00 50 1023.7
20171217035856 43 115 4.0 8.0 0.00 0.00 0.00 50 1023.7
20171217035454 43 113 5.0 8.0 0.00 0.00 0.00 50 1023.6
20171217035412 43 113 5.0 8.0 0.00 0.00 0.00 50 1023.6
20171217034851 43 117 5.0 7.0 0.00 0.00 0.00 49 1023.6
20171217034344 43 131 4.0 8.0 0.00 0.00 0.00 47 1023.6
20171217033836 43 119 5.0 8.0 0.00 0.00 0.00 47 1023.3
20171217033430 44 124 4.0 8.0 0.00 0.00 0.00 45 1023.3
20171217032852 44 120 5.0 9.0 0.00 0.00 0.00 44 1023.2
20171217032350 45 123 6.0 9.0 0.00 0.00 0.00 44 1023.2
20171217031851 45 140 4.0 8.0 0.00 0.00 0.00 45 1023.1
20171217031355 46 130 5.0 8.0 0.00 0.00 0.00 44 1022.9
20171217030845 46 130 5.0 8.0 0.00 0.00 0.00 43 1022.8
20171217030319 46 115 5.0 7.0 0.00 0.00 0.00 43 1022.9
20171217025924 46 134 5.0 7.0 0.00 0.00 0.00 43 1022.8
20171217025424 46 152 4.0 7.0 0.00 0.00 0.00 43 1022.8
20171217023850 46 142 4.0 5.0 0.00 0.00 0.00 42 1022.7
20171217023349 46 139 4.0 7.0 0.00 0.00 0.00 41 1022.7
20171217022850 46 146 4.0 8.0 0.00 0.00 0.00 41 1022.6
20171217021410 45 140 4.0 7.0 0.00 0.00 0.00 42 1022.4
20171217020843 45 139 4.0 8.0 0.00 0.00 0.00 41 1022.3
20171217020415 45 137 6.0 8.0 0.00 0.00 0.00 41 1022.3
20171217015906 46 138 4.0 6.0 0.00 0.00 0.00 40 1022.2
20171217014914 45 98 3.0 4.0 0.00 0.00 0.00 41 1022.0
20171217014356 45 74 2.0 3.0 0.00 0.00 0.00 40 1021.9
20171217013902 46 74 2.0 4.0 0.00 0.00 0.00 39 1021.9
20171217013352 47 75 3.0 4.0 0.00 0.00 0.00 39 1021.8
20171217012846 47 149 2.0 5.0 0.00 0.00 0.00 39 1021.8
20171217012327 48 149 3.0 6.0 0.00 0.00 0.00 38 1021.7
20171217011904 48 149 2.0 6.0 0.00 0.00 0.00 38 1021.7
20171217010915 48 175 2.0 3.0 0.00 0.00 0.00 38 1021.6
20171217010411 48 175 1.0 4.0 0.00 0.00 0.00 38 1021.6
20171217004823 49 175 2.0 4.0 0.00 0.00 0.00 37 1021.5
20171217004342 49 178 2.0 5.0 0.00 0.00 0.00 36 1021.4
20171217003917 49 182 3.0 5.0 0.00 0.00 0.00 36 1021.4
20171217003443 49 169 4.0 5.0 0.00 0.00 0.00 36 1021.3
20171217003401 49 169 4.0 5.0 0.00 0.00 0.00 36 1021.3
20171217002913 50 192 2.0 5.0 0.00 0.00 0.00 36 1021.3
20171217002418 50 192 2.0 5.0 0.00 0.00 0.00 36 1021.4
20171217001844 50 198 3.0 5.0 0.00 0.00 0.00 36 1021.3
20171217001323 50 198 3.0 6.0 0.00 0.00 0.00 36 1021.2
20171217000317 50 198 3.0 8.0 0.00 0.00 0.00 35 1021.1
20171216235405 51 222 3.0 9.0 0.00 0.00 0.00 35 1021.0
20171216234845 51 211 3.0 9.0 0.00 0.00 0.00 35 1021.0
20171216234324 51 226 4.0 10.0 0.00 0.00 0.00 34 1020.9
20171216233917 51 227 4.0 10.0 0.00 0.00 0.00 34 1020.9
20171216233346 52 178 5.0 11.0 0.00 0.00 0.00 33 1020.9
20171216232911 52 209 7.0 12.0 0.00 0.00 0.00 33 1020.9
20171216232350 52 212 5.0 11.0 0.00 0.00 0.00 33 1020.9
20171216231422 53 245 9.0 14.0 0.00 0.00 0.00 31 1020.8
20171216230858 53 224 7.0 11.0 0.00 0.00 0.00 31 1020.8
20171216230327 54 198 5.0 11.0 0.00 0.00 0.00 31 1020.8
20171216225818 54 203 5.0 11.0 0.00 0.00 0.00 33 1020.7
20171216225412 53 192 5.0 10.0 0.00 0.00 0.00 34 1020.6
20171216224846 53 173 6.0 10.0 0.00 0.00 0.00 34 1020.7
20171216224353 53 146 8.0 11.0 0.00 0.00 0.00 34 1020.6
20171216223858 53 127 7.0 11.0 0.00 0.00 0.00 34 1020.6
20171216223331 53 161 5.0 10.0 0.00 0.00 0.00 35 1020.5
20171216222844 53 185 6.0 10.0 0.00 0.00 0.00 35 1020.5
20171216222338 52 190 6.0 14.0 0.00 0.00 0.00 35 1020.6
20171216221913 53 148 9.0 14.0 0.00 0.00 0.00 35 1020.6
20171216221357 52 138 7.0 11.0 0.00 0.00 0.00 35 1020.6
20171216220903 52 156 4.0 10.0 0.00 0.00 0.00 35 1020.5
20171216220401 52 135 6.0 13.0 0.00 0.00 0.00 35 1020.6
20171216215400 52 185 4.0 11.0 0.00 0.00 0.00 36 1020.7
20171216214410 52 155 6.0 15.0 0.00 0.00 0.00 36 1020.7
20171216213926 52 157 7.0 15.0 0.00 0.00 0.00 36 1020.7
20171216213844 52 157 7.0 15.0 0.00 0.00 0.00 36 1020.7
20171216213334 52 210 7.0 11.0 0.00 0.00 0.00 36 1020.7
20171216212845 52 144 4.0 11.0 0.00 0.00 0.00 36 1020.7
20171216212455 51 207 7.0 11.0 0.00 0.00 0.00 36 1020.6
20171216211410 51 163 8.0 12.0 0.00 0.00 0.00 38 1020.7
20171216210823 51 141 7.0 13.0 0.00 0.00 0.00 38 1020.7
20171216210433 50 173 7.0 13.0 0.00 0.00 0.00 38 1020.9
20171216205904 50 144 9.0 14.0 0.00 0.00 0.00 38 1021.0
20171216205350 50 117 8.0 12.0 0.00 0.00 0.00 38 1021.0
20171216204850 50 178 8.0 10.0 0.00 0.00 0.00 38 1021.1
20171216202915 50 161 10.0 15.0 0.00 0.00 0.00 39 1021.4
20171216202417 49 171 7.0 11.0 0.00 0.00 0.00 40 1021.4
20171216201411 50 158 8.0 12.0 0.00 0.00 0.00 39 1021.6
20171216200847 49 169 7.0 12.0 0.00 0.00 0.00 40 1021.6
20171216200402 49 190 4.0 10.0 0.00 0.00 0.00 41 1021.7
20171216195902 49 166 5.0 14.0 0.00 0.00 0.00 41 1021.8
20171216194901 49 177 3.0 11.0 0.00 0.00 0.00 42 1022.0
20171216192902 48 158 5.0 14.0 0.00 0.00 0.00 43 1022.5
20171216192820 48 158 5.0 14.0 0.00 0.00 0.00 43 1022.5
20171216192433 48 162 7.0 14.0 0.00 0.00 0.00 43 1022.6
20171216191914 48 221 4.0 10.0 0.00 0.00 0.00 43 1022.7
20171216191356 48 157 7.0 10.0 0.00 0.00 0.00 43 1022.9
20171216190413 47 162 8.0 15.0 0.00 0.00 0.00 44 1023.1
20171216184911 47 189 5.0 14.0 0.00 0.00 0.00 45 1023.5
20171216184402 46 179 6.0 14.0 0.00 0.00 0.00 45 1023.7
20171216183415 46 186 6.0 11.0 0.00 0.00 0.00 45 1023.8
20171216181906 46 157 7.0 11.0 0.00 0.00 0.00 45 1024.3
20171216180920 45 197 7.0 12.0 0.00 0.00 0.00 46 1024.5
20171216180317 45 144 8.0 13.0 0.00 0.00 0.00 46 1024.6
20171216175920 45 129 9.0 13.0 0.00 0.00 0.00 46 1024.6
20171216175357 44 139 8.0 11.0 0.00 0.00 0.00 46 1024.7
20171216174826 44 149 6.0 11.0 0.00 0.00 0.00 47 1024.9
20171216174320 43 147 5.0 9.0 0.00 0.00 0.00 47 1025.0
20171216173908 43 130 6.0 10.0 0.00 0.00 0.00 47 1025.0
20171216173336 43 158 5.0 10.0 0.00 0.00 0.00 47 1025.2
20171216172937 43 178 4.0 8.0 0.00 0.00 0.00 47 1025.3
20171216172855 43 178 4.0 8.0 0.00 0.00 0.00 47 1025.3
20171216172358 43 165 4.0 8.0 0.00 0.00 0.00 47 1025.4
20171216171853 42 175 4.0 7.0 0.00 0.00 0.00 47 1025.4
20171216171435 42 185 4.0 7.0 0.00 0.00 0.00 47 1025.4
20171216170905 41 157 4.0 7.0 0.00 0.00 0.00 49 1025.5
20171216143408 28 159 1.0 3.0 0.00 0.00 0.00 67 1026.1
20171216142902 28 161 2.0 3.0 0.00 0.00 0.00 67 1026.2
20171216142450 28 161 1.0 2.0 0.00 0.00 0.00 67 1026.2
20171216141958 28 161 1.0 2.0 0.00 0.00 0.00 67 1026.2
20171216140427 29 161 2.0 3.0 0.00 0.00 0.00 65 1026.4